[[{"header":{"parameterUnit":"m.s-1","parameterCategory":1,"la1":30.2992,"la2":30.254,"lo1":-89.0895,"lo2":-89.0443,"dy":0.0025,"dx":0.0025,"nx":19,"ny":19,"refTime":"2026-05-08T09:00:00:Z","depth":0,"parameterNumber":2,"parameterNumberName":"U-component_of_WINDS"},"data":[0,0,0,-6.6796,-6.6797,-6.6831,-6.6831,-6.6918,-6.6919,0,0,0,0,0,0,0,0,0,0,0,-6.6812,-6.6814,-6.6796,-6.6798,-6.6831,-6.6831,-6.6918,-6.6919,0,0,0,0,0,0,0,0,0,0,0,-6.6812,-6.6814,-6.6815,-6.6798,-6.6831,-6.6831,-6.6917,-6.6877,0,0,0,0,0,0,0,0,0,0,-6.6837,-6.6877,-6.6813,-6.6815,-6.6798,-6.6831,-6.6831,-6.6874,-6.6879,-6.6922,0,-6.6966,0,-6.6944,-6.6928,-6.6928,0,0,0,-6.6778,-6.6873,-6.6858,-6.6816,-6.6799,-6.6831,-6.681,-6.6876,-6.6882,-6.6929,-6.6967,-6.6969,-6.6946,-6.6928,-6.6929,-6.7238,-6.724,0,0,-6.6776,-6.6833,-6.6854,-6.6863,-6.686,-6.6809,-6.6812,-6.6879,-6.6924,-6.6967,-6.697,-6.6947,-6.6929,-6.693,-6.7236,-6.7239,0,0,0,-6.6784,-6.6832,-6.6815,-6.6861,-6.6864,-6.6811,-6.6813,-6.6921,-6.6911,-6.697,-6.6948,-6.693,-6.6932,-6.7233,-6.7237,-6.7406,0,0,0,-6.6782,-6.6837,-6.6815,-6.685,-6.6863,-6.6893,-6.6855,-6.6906,-6.6912,-6.6948,-6.693,-6.6933,-6.723,-6.7235,-6.7396,-6.7476,0,0,0,-6.6801,-6.6838,-6.6852,-6.6853,-6.6869,-6.689,-6.6883,-6.6906,-6.69,-6.6928,-6.6933,-6.7229,-6.7234,-6.7387,-6.7461,-6.7573,0,0,0,-6.6838,-6.7003,-6.6856,-6.7032,-6.6869,-6.6996,-6.6882,-6.6973,-6.7019,-6.6931,-6.7231,-6.7236,-6.7384,-6.7452,-6.7563,-6.7676,-6.7728,0,0,-6.7078,-6.7034,-6.7133,-6.7002,-6.7169,-6.6986,-6.7178,-6.7166,-6.7118,-6.7201,-6.7208,-6.7399,-6.746,-6.7571,-6.8007,-6.805,0,0,0,-6.7228,-6.73,-6.7332,-6.7377,-6.7373,-6.7375,-6.7328,-6.7324,-6.7392,-6.7172,-6.7469,-6.7504,-6.7567,-6.7617,-6.7653,-6.7703,-6.7263,-6.7262,-6.7262,-6.7646,-6.7576,-6.7735,-6.7669,-6.7715,-6.7666,-6.7697,-6.7683,-6.7598,-6.7671,-6.7693,-6.7967,-6.8029,-6.8055,-6.8108,-6.7749,-6.775,-6.775,-6.7751,-6.7988,-6.8078,-6.7964,-6.8076,-6.8002,-6.8096,-6.8056,-6.7994,-6.8071,-6.7943,-6.7995,-6.786,-6.8104,-6.8146,-6.7763,-6.7761,-6.7759,-6.7758,-6.7757,-6.8252,-6.8282,-6.8275,-6.8334,-6.8389,-6.8317,-6.8397,-6.8326,-6.8261,-6.8313,-6.8329,-6.8326,-6.8312,-6.8326,-6.8327,-6.8328,-6.8329,-6.8329,-6.833,-6.8527,-6.8513,-6.8588,-6.8599,-6.8619,-6.8638,-6.8592,-6.861,-6.8613,-6.8555,-6.8555,-6.8464,-6.8142,-6.8061,-6.8344,-6.8342,-6.834,-6.8338,-6.8337,-6.8896,-6.8802,-6.8918,-6.8939,-6.8945,-6.9004,-6.8914,-6.8958,-6.8963,-6.9005,-6.8904,-6.8678,-6.8628,-6.8599,-6.8531,-6.8919,-6.8919,-6.8919,-6.8919,-6.9116,-6.9085,-6.9188,-6.9226,-6.9255,-6.9186,-6.9321,-6.9288,-6.9239,-6.9238,-6.9173,-6.9079,-6.9052,-6.9018,-6.8979,-6.8915,-6.9392,-6.9393,-6.9393,-6.9339,-6.9307,-6.9434,-6.9385,-6.9386,-6.9388,-6.9512,-6.9561,-6.9486,-6.9411,-6.9236,-6.9216,-6.9063,-6.9017,-6.8934,-6.8876,-6.8757,0,0]},{"header":{"parameterUnit":"m.s-1","parameterCategory":1,"la1":30.2992,"la2":30.254,"lo1":-89.0895,"lo2":-89.0443,"dy":0.0025,"dx":0.0025,"nx":19,"ny":19,"refTime":"2026-05-08T09:00:00:Z","depth":0,"parameterNumber":3,"parameterNumberName":"V-component_of_WINDS"},"data":[0,0,0,5.7071,5.7071,5.7071,5.7071,5.7098,5.7098,0,0,0,0,0,0,0,0,0,0,0,5.7086,5.7086,5.7071,5.7071,5.7071,5.7071,5.7098,5.7098,0,0,0,0,0,0,0,0,0,0,0,5.7085,5.7086,5.7087,5.7071,5.7071,5.7071,5.7098,5.7088,0,0,0,0,0,0,0,0,0,0,5.7084,5.7112,5.7086,5.7087,5.7071,5.7071,5.7071,5.7087,5.7089,5.7109,0,5.7129,0,5.7114,5.7102,5.7102,0,0,0,5.706,5.7111,5.7097,5.7087,5.7071,5.7071,5.7068,5.7088,5.709,5.7111,5.7129,5.713,5.7115,5.7102,5.7102,5.725,5.7251,0,0,5.706,5.7094,5.7096,5.7099,5.7099,5.7068,5.7068,5.7089,5.7111,5.7129,5.713,5.7115,5.7102,5.7103,5.7249,5.7251,0,0,0,5.7068,5.7094,5.708,5.7099,5.7096,5.7068,5.7068,5.711,5.7103,5.713,5.7116,5.7103,5.7103,5.7248,5.725,5.7339,0,0,0,5.7067,5.7098,5.708,5.7101,5.7097,5.7103,5.709,5.7101,5.7103,5.7115,5.7103,5.7104,5.7246,5.7249,5.7334,5.7375,0,0,0,5.7081,5.71,5.7105,5.7102,5.7104,5.7102,5.7095,5.7101,5.7095,5.7102,5.7104,5.7245,5.7248,5.7329,5.7367,5.7422,0,0,0,5.7105,5.7185,5.7107,5.7192,5.7104,5.7158,5.7095,5.7134,5.7151,5.7103,5.7247,5.7249,5.7327,5.7362,5.7417,5.7472,5.7499,0,0,5.7225,5.7201,5.7248,5.7178,5.7254,5.7155,5.7245,5.723,5.7201,5.7236,5.7239,5.7335,5.7367,5.7421,5.7643,5.7664,0,0,0,5.7297,5.7332,5.7345,5.7362,5.7353,5.7348,5.7315,5.731,5.7338,5.7226,5.7371,5.7388,5.7419,5.7444,5.7462,5.7485,5.7263,5.7263,5.7263,5.7513,5.7472,5.7547,5.7506,5.7525,5.7491,5.7502,5.749,5.7443,5.7479,5.7487,5.7627,5.7657,5.767,5.7696,5.7516,5.7516,5.7516,5.7517,5.7683,5.7724,5.7661,5.7711,5.7668,5.7711,5.7683,5.7649,5.7683,5.7617,5.7641,5.757,5.7695,5.7715,5.7523,5.7522,5.7521,5.752,5.752,5.7816,5.7829,5.7822,5.7843,5.7865,5.7823,5.7858,5.7818,5.7781,5.7806,5.781,5.7809,5.78,5.7812,5.7812,5.7813,5.7813,5.7814,5.7814,5.7957,5.7946,5.7979,5.7977,5.7984,5.7988,5.7958,5.7963,5.796,5.7928,5.7928,5.7877,5.7716,5.7675,5.7821,5.782,5.7819,5.7818,5.7818,5.8138,5.8091,5.8143,5.815,5.8145,5.817,5.812,5.8136,5.8135,5.8154,5.81,5.7988,5.7961,5.7946,5.7911,5.8109,5.8109,5.8109,5.8109,5.8249,5.8232,5.8276,5.8289,5.8299,5.826,5.8321,5.83,5.827,5.8267,5.8234,5.8186,5.8173,5.8153,5.8134,5.81,5.8342,5.8343,5.8343,5.8357,5.834,5.8398,5.8368,5.8362,5.8359,5.8415,5.8434,5.8391,5.8351,5.8264,5.8254,5.8176,5.8153,5.8107,5.8078,5.8017,0,0]}]]